Location: Caltech
(34.1382°N, 118.1253°W)
Time: 05:05:06
(UTC-07:00)

A-11 Canister half - All Passes

Search period start: 27 April 2015 00:00
Search period end: 07 May 2015 00:00
Orbit: 1515 x 1685 km, 47.2° (Epoch: 25 April)

Date Brightness Start Highest point End Pass type
(mag) Time Alt. Az. Time Alt. Az. Time Alt. Az.
27 Apr - 00:14:28 10° WNW 00:23:07 32° SW 00:31:33 10° S visible
27 Apr - 13:24:31 10° S 13:31:56 29° SE 13:39:46 10° ENE daylight
27 Apr - 15:26:45 10° SW 15:36:10 85° NW 15:45:58 10° NE daylight
27 Apr - 17:33:14 10° W 17:42:12 42° NNW 17:51:28 10° NE daylight
27 Apr - 19:40:15 10° WNW 19:49:21 41° NNE 19:58:45 10° E visible
27 Apr - 21:45:37 10° NW 21:55:38 79° NE 22:05:51 10° ESE visible
27 Apr - 23:51:24 10° WNW 00:00:14 35° SW 00:08:56 10° S visible
28 Apr - 13:01:59 10° S 13:09:06 26° SE 13:16:39 10° ENE daylight
28 Apr - 15:03:52 10° SW 15:13:15 89° NW 15:23:01 10° NE daylight
28 Apr - 17:10:13 10° W 17:19:12 43° NNW 17:28:28 10° NE daylight
28 Apr - 19:17:17 10° WNW 19:26:19 40° N 19:35:39 10° ENE daylight
28 Apr - 21:22:42 10° NW 21:32:40 76° NNE 21:42:52 10° ESE visible
28 Apr - 23:28:22 10° WNW 23:37:22 37° SW 23:46:16 10° SSE visible
29 Apr - 12:39:31 10° S 12:46:16 24° SE 12:53:30 10° ENE daylight
29 Apr - 14:41:01 10° SW 14:50:22 86° SE 15:00:04 10° NE daylight
29 Apr - 16:47:13 10° W 16:56:12 44° NNW 17:05:28 10° NE daylight
29 Apr - 18:54:19 10° WNW 19:03:17 40° N 19:12:34 10° ENE daylight
29 Apr - 20:59:48 10° NW 21:09:43 73° NNE 21:19:53 10° ESE visible
29 Apr - 23:05:20 10° WNW 23:14:29 40° SW 23:23:35 10° SSE visible
30 Apr - 12:17:05 10° S 12:23:26 22° SE 12:30:20 10° E daylight
30 Apr - 14:18:10 10° SW 14:27:29 82° SE 14:37:08 10° NE daylight
30 Apr - 16:24:11 10° W 16:33:11 45° NNW 16:42:30 10° NE daylight
30 Apr - 18:31:21 10° WNW 18:40:15 39° N 18:49:28 10° ENE daylight
30 Apr - 20:36:54 10° NW 20:46:46 69° NNE 20:56:53 10° ESE visible
30 Apr - 22:42:20 10° WNW 22:51:36 43° SW 23:00:52 10° SSE visible
01 May - 11:54:41 10° SSE 12:00:38 20° SE 12:07:06 10° E daylight
01 May - 13:55:20 10° SW 14:04:36 78° SE 14:14:12 10° NE daylight
01 May - 16:01:11 10° W 16:10:12 47° NNW 16:19:31 10° NE daylight
01 May - 18:08:22 10° WNW 18:17:14 39° N 18:26:22 10° ENE daylight
01 May - 20:14:00 10° NW 20:23:47 66° NNE 20:33:52 10° ESE visible
01 May - 22:19:20 10° WNW 22:28:43 46° SW 22:38:07 10° SSE visible
02 May - 11:32:22 10° SSE 11:37:48 18° SE 11:43:49 10° E daylight
02 May - 13:32:30 10° SW 13:41:43 74° SE 13:51:15 10° ENE daylight
02 May - 15:38:11 10° W 15:47:13 48° NNW 15:56:32 10° NE daylight
02 May - 17:45:24 10° WNW 17:54:11 38° N 18:03:17 10° ENE daylight
02 May - 19:51:06 10° NW 20:00:49 64° NNE 20:10:51 10° ESE visible
02 May - 21:56:22 10° WNW 22:05:50 49° SW 22:15:22 10° SSE visible
03 May - 11:10:07 10° SSE 11:14:58 16° SE 11:20:28 10° E daylight
03 May - 13:09:42 10° SW 13:18:51 69° SE 13:28:19 10° ENE daylight
03 May - 15:15:11 10° W 15:24:14 50° NNW 15:33:34 10° NE daylight
03 May - 17:22:25 10° WNW 17:31:10 38° N 17:40:12 10° ENE daylight
03 May - 19:28:12 10° NW 19:37:52 61° NNE 19:47:49 10° ESE daylight
03 May - 21:33:24 10° WNW 21:42:56 52° SW 21:52:36 10° SSE visible
03 May - 23:44:52 10° WSW 23:46:57 10° SW 23:48:01 10° SW visible
04 May - 10:47:59 10° SSE 10:52:09 15° SE 10:57:00 10° E daylight
04 May - 12:46:54 10° SW 12:56:00 65° SE 13:05:22 10° ENE daylight
04 May - 14:52:12 10° W 15:01:16 51° NNW 15:10:37 10° NE daylight
04 May - 16:59:26 10° WNW 17:08:07 37° N 17:17:08 10° ENE daylight
04 May - 19:05:18 10° NW 19:14:53 58° NNE 19:24:47 10° ESE daylight
04 May - 21:10:27 10° WNW 21:20:03 56° SW 21:29:48 10° SSE visible
04 May - 23:20:22 10° WSW 23:24:05 12° SW 23:26:54 10° SW visible
05 May - 10:26:01 10° SSE 10:29:20 13° SE 10:33:24 10° E daylight
05 May - 12:24:07 10° SSW 12:33:09 61° SE 12:42:25 10° ENE daylight
05 May - 14:29:12 10° W 14:38:17 53° NNW 14:47:40 10° NE daylight
05 May - 16:36:26 10° WNW 16:45:06 37° N 16:54:03 10° ENE daylight
05 May - 18:42:24 10° NW 18:51:54 56° NNE 19:01:44 10° ESE daylight
05 May - 20:47:30 10° WNW 20:57:09 60° SW 21:06:59 10° SSE visible
05 May - 22:56:32 10° W 23:01:13 13° SW 23:05:07 10° SSW visible
06 May - 10:04:23 10° SE 10:06:30 11° SE 10:09:28 10° ESE daylight
06 May - 12:01:21 10° SSW 12:10:17 57° SE 12:19:28 10° ENE daylight
06 May - 14:06:14 10° WSW 14:15:20 55° NNW 14:24:43 10° NE daylight
06 May - 16:13:27 10° WNW 16:22:05 37° N 16:30:59 10° ENE daylight
06 May - 18:19:30 10° NW 18:28:55 54° NNE 18:38:40 10° E daylight
06 May - 20:24:34 10° WNW 20:34:15 63° SW 20:44:09 10° SE visible
06 May - 22:32:57 10° W 22:38:21 15° SW 22:43:04 10° SSW visible
